Copper Mountain, CO

10:15 PM MDT on July 22, 2017 (GMT -0600)
Copper Mountain

Weather History for KCCU - July, 2013

Change the Weather History Date:

Tuesday, July 30, 2013

  Actual Average Record
Temperature  
Mean Temperature 52 °F -  
Max Temperature 60 °F - 73 °F (2005)
Min Temperature 44 °F - 39 °F (2003)
Degree Days  
Heating Degree Days 13    
Month to date heating degree days  
Cooling Degree Days 0    
Month to date cooling degree days  
Growing Degree Days 2 (Base 50)    
Moisture  
Dew Point 35 °F    
Average Humidity 54    
Maximum Humidity 71    
Minimum Humidity 36    
Precipitation  
Precipitation 0.04 in - 0.43 in (2014)
Sea Level Pressure  
Sea Level Pressure 30.74 in    
Wind  
Wind Speed 13 mph (WSW)    
Max Wind Speed 29 mph    
Max Gust Speed 38 mph    
Visibility 10 miles    
Events Rain , Thunderstorm    
T = Trace of Precipitation, MM = Missing Value Source: NWS Daily Summary

Daily Weather History Graph

Daily Weather History Graph

Search for Another Location

Airport or City:

Trip Planner

Search our weather history database for the weather conditions in past years. The results will help you decide how hot, cold, wet, or windy it might be!

Date:

Astronomy

Jul. 30, 2013 Rise Set
Actual Time 6:02 AM MDT 8:18 PM MDT
Civil Twilight 5:32 AM MDT 8:48 PM MDT
Nautical Twilight 4:55 AM MDT 9:25 PM MDT
Astronomical Twilight 4:14 AM MDT 10:06 PM MDT
Moon 12:22 AM MDT (7/30) 2:41 PM MDT (7/30)
Length of Visible Light 15h 16m
Length of Day
14h 16m
Last Quarter, 40% of the Moon is Illuminated
Jul 30
Last Quarter
Aug 6
New
Aug 14
First Quarter
Aug 20
Full
Aug 28
Last Quarter

Hourly Weather History & Observations

Time (MDT) Temp. Windchill Dew Point Humidity Pressure Visibility Wind Dir Wind Speed Gust Speed Precip Events Conditions
12:15 AM 46.4 °F 41.5 °F 32.0 °F 57% 30.67 in 10.0 mi South 10.4 mph - N/A   Clear
12:35 AM 46.4 °F 45.2 °F 33.8 °F 62% 30.67 in 10.0 mi SSW 3.5 mph - N/A Thunderstorm Clear
12:55 AM 46.4 °F 40.7 °F 33.8 °F 62% 30.67 in 10.0 mi South 12.7 mph - N/A   Clear
1:15 AM 46.4 °F 41.1 °F 33.8 °F 62% 30.67 in 10.0 mi South 11.5 mph - N/A   Clear
1:35 AM 46.4 °F 42.9 °F 33.8 °F 62% 30.68 in 10.0 mi SSW 6.9 mph - N/A   Scattered Clouds
1:55 AM 46.4 °F 41.9 °F 33.8 °F 62% 30.68 in 10.0 mi SW 9.2 mph - N/A   Clear
2:15 AM 46.4 °F 40.7 °F 33.8 °F 62% 30.67 in 10.0 mi WSW 12.7 mph 19.6 mph N/A   Clear
2:35 AM 46.4 °F 41.5 °F 32.0 °F 57% 30.67 in 10.0 mi SSW 10.4 mph 19.6 mph N/A   Clear
2:55 AM 46.4 °F 41.9 °F 32.0 °F 57% 30.67 in 10.0 mi WSW 9.2 mph - N/A   Clear
3:15 AM 46.4 °F 42.4 °F 32.0 °F 57% 30.67 in 10.0 mi SW 8.1 mph - N/A   Clear
3:35 AM 46.4 °F 42.4 °F 32.0 °F 57% 30.67 in 10.0 mi SSW 8.1 mph 17.3 mph N/A   Clear
3:55 AM 46.4 °F 42.9 °F 32.0 °F 57% 30.67 in 10.0 mi SSW 6.9 mph - N/A   Clear
4:15 AM 46.4 °F 41.5 °F 32.0 °F 57% 30.67 in 10.0 mi WSW 10.4 mph 21.9 mph N/A   Clear
4:35 AM 44.6 °F 40.2 °F 32.0 °F 61% 30.67 in 10.0 mi SW 8.1 mph - N/A   Clear
4:55 AM 44.6 °F 40.2 °F 32.0 °F 61% 30.67 in 10.0 mi WSW 8.1 mph - N/A   Clear
5:15 AM 44.6 °F 40.7 °F 32.0 °F 61% 30.68 in 10.0 mi West 6.9 mph - N/A   Clear
5:35 AM 44.6 °F 40.7 °F 32.0 °F 61% 30.69 in 10.0 mi West 6.9 mph - N/A   Clear
5:55 AM 46.4 °F 42.4 °F 32.0 °F 57% 30.69 in 10.0 mi SSW 8.1 mph - N/A   Clear
6:15 AM 44.6 °F 37.4 °F 32.0 °F 61% 30.69 in 10.0 mi South 16.1 mph - N/A   Clear
6:24 AM 44.6 °F 38.4 °F 32.0 °F 61% 30.69 in 10.0 mi South 12.7 mph - N/A   Clear
6:55 AM 46.4 °F 41.9 °F 32.0 °F 57% 30.70 in 10.0 mi WSW 9.2 mph - N/A   Scattered Clouds
7:15 AM 46.4 °F 41.9 °F 32.0 °F 57% 30.71 in 10.0 mi West 9.2 mph - N/A   Clear
7:35 AM 46.4 °F 42.4 °F 33.8 °F 62% 30.71 in 10.0 mi WSW 8.1 mph - N/A   Clear
7:55 AM 46.4 °F 43.5 °F 33.8 °F 62% 30.72 in 10.0 mi WSW 5.8 mph 17.3 mph N/A   Clear
8:15 AM 48.2 °F - 33.8 °F 58% 30.73 in 10.0 mi West 11.5 mph - N/A   Clear
8:35 AM 48.2 °F - 35.6 °F 62% 30.73 in 10.0 mi West 15.0 mph - N/A   Scattered Clouds
8:55 AM 51.8 °F - 37.4 °F 58% 30.73 in 10.0 mi West 12.7 mph 17.3 mph N/A   Scattered Clouds
9:15 AM 51.8 °F - 35.6 °F 54% 30.73 in 10.0 mi West 19.6 mph 28.8 mph N/A   Scattered Clouds
9:35 AM 53.6 °F - 37.4 °F 54% 30.73 in 10.0 mi West 19.6 mph 27.6 mph N/A   Mostly Cloudy
9:55 AM 53.6 °F - 37.4 °F 54% 30.74 in 10.0 mi West 23.0 mph 29.9 mph N/A   Mostly Cloudy
10:15 AM 53.6 °F - 35.6 °F 51% 30.73 in 10.0 mi West 28.8 mph 38.0 mph N/A   Scattered Clouds
10:35 AM 53.6 °F - 37.4 °F 54% 30.75 in 10.0 mi West 19.6 mph 35.7 mph N/A   Scattered Clouds
10:55 AM 53.6 °F - 37.4 °F 54% 30.75 in 10.0 mi West 27.6 mph 36.8 mph N/A   Mostly Cloudy
11:15 AM 53.6 °F - 37.4 °F 54% 30.75 in 10.0 mi West 24.2 mph 38.0 mph N/A   Mostly Cloudy
11:35 AM 53.6 °F - 35.6 °F 51% 30.76 in 10.0 mi West 23.0 mph 35.7 mph N/A   Scattered Clouds
11:55 AM 55.4 °F - 35.6 °F 47% 30.76 in 10.0 mi West 23.0 mph 35.7 mph N/A   Mostly Cloudy
12:15 PM 55.4 °F - 35.6 °F 47% 30.76 in 10.0 mi West 28.8 mph 38.0 mph N/A   Scattered Clouds
12:35 PM 55.4 °F - 33.8 °F 44% 30.76 in 10.0 mi West 27.6 mph 35.7 mph N/A   Scattered Clouds
12:55 PM 59.0 °F - 35.6 °F 42% 30.77 in 10.0 mi West 28.8 mph 36.8 mph N/A   Scattered Clouds
1:15 PM 59.0 °F - 37.4 °F 45% 30.78 in 10.0 mi West 27.6 mph 35.7 mph N/A   Mostly Cloudy
1:35 PM 59.0 °F - 35.6 °F 42% 30.77 in 10.0 mi West 26.5 mph 35.7 mph N/A   Mostly Cloudy
1:55 PM 59.0 °F - 35.6 °F 42% 30.77 in 10.0 mi West 20.7 mph 33.4 mph N/A   Scattered Clouds
2:15 PM 59.0 °F - 33.8 °F 39% 30.77 in 10.0 mi WSW 21.9 mph 33.4 mph N/A   Scattered Clouds
2:35 PM 59.0 °F - 33.8 °F 39% 30.77 in 10.0 mi West 18.4 mph 28.8 mph N/A   Scattered Clouds
2:55 PM 60.8 °F - 33.8 °F 36% 30.77 in 10.0 mi West 24.2 mph 29.9 mph N/A   Scattered Clouds
3:15 PM 60.8 °F - 33.8 °F 36% 30.77 in 10.0 mi West 13.8 mph 28.8 mph N/A   Mostly Cloudy
3:35 PM 59.0 °F - 41.0 °F 51% 30.77 in 10.0 mi West 16.1 mph - N/A   Mostly Cloudy
3:55 PM 59.0 °F - 35.6 °F 42% 30.77 in 10.0 mi West 9.2 mph 18.4 mph N/A   Mostly Cloudy
4:15 PM 59.0 °F - 37.4 °F 45% 30.77 in 10.0 mi West 18.4 mph 23.0 mph N/A   Mostly Cloudy
4:35 PM 60.8 °F - 33.8 °F 36% 30.77 in 10.0 mi West 16.1 mph 27.6 mph N/A Thunderstorm Thunderstorm
4:55 PM 59.0 °F - 39.2 °F 48% 30.77 in 10.0 mi West 23.0 mph 28.8 mph N/A   Overcast
5:15 PM 55.4 °F - 37.4 °F 51% 30.78 in 10.0 mi West 18.4 mph 21.9 mph N/A   Overcast
5:35 PM 59.0 °F - 37.4 °F 45% 30.78 in 10.0 mi West 15.0 mph - N/A   Overcast
5:55 PM 55.4 °F - 37.4 °F 51% 30.78 in 10.0 mi West 21.9 mph - N/A   Overcast
6:15 PM 53.6 °F - 37.4 °F 54% 30.78 in 10.0 mi West 15.0 mph - N/A   Overcast
6:35 PM 53.6 °F - 37.4 °F 54% 30.78 in 10.0 mi West 13.8 mph - N/A   Overcast
6:55 PM 55.4 °F - 37.4 °F 51% 30.78 in 10.0 mi West 16.1 mph - N/A   Mostly Cloudy
7:15 PM 53.6 °F - 35.6 °F 51% 30.78 in 10.0 mi West 11.5 mph - N/A   Mostly Cloudy
7:35 PM 53.6 °F - 37.4 °F 54% 30.79 in 10.0 mi West 16.1 mph 23.0 mph N/A   Overcast
7:55 PM 51.8 °F - 37.4 °F 58% 30.79 in 10.0 mi West 11.5 mph 33.4 mph N/A Rain Light Rain
8:15 PM 46.4 °F 39.5 °F 37.4 °F 71% 30.81 in 3.0 mi SSW 17.3 mph 33.4 mph 0.03 in Rain Rain
8:35 PM 51.8 °F - 37.4 °F 58% 30.79 in 10.0 mi WSW 13.8 mph 18.4 mph 0.04 in   Overcast
8:55 PM 51.8 °F - 37.4 °F 58% 30.80 in 10.0 mi WSW 9.2 mph 21.9 mph 0.04 in   Scattered Clouds
9:15 PM 51.8 °F - 37.4 °F 58% 30.80 in 10.0 mi WSW 10.4 mph - N/A   Clear
9:35 PM 51.8 °F - 37.4 °F 58% 30.81 in 10.0 mi WSW 11.5 mph 23.0 mph N/A   Clear
9:55 PM 53.6 °F - 39.2 °F 58% 30.81 in 10.0 mi West 13.8 mph - N/A   Clear
10:15 PM 53.6 °F - 37.4 °F 54% 30.82 in 10.0 mi SSW 6.9 mph - N/A   Clear
10:35 PM 53.6 °F - 37.4 °F 54% 30.82 in 10.0 mi West 10.4 mph - N/A   Clear
10:55 PM 53.6 °F - 37.4 °F 54% 30.82 in 10.0 mi Calm Calm - N/A   Clear
11:15 PM 51.8 °F - 37.4 °F 58% 30.82 in 10.0 mi WSW 6.9 mph - N/A   Clear
11:35 PM 51.8 °F - 37.4 °F 58% 30.82 in 10.0 mi WSW 6.9 mph 16.1 mph N/A   Clear
11:55 PM 51.8 °F - 37.4 °F 58% 30.81 in 10.0 mi WSW 9.2 mph - N/A   Clear